Location: G�kdere
(37.0328°N, 30.9000°E)
Time: 21:55:50
(UTC+00:00)

IRS-1C Rocket - Pass Details

Date: 03 March 2021
Orbit: 800 x 806 km, 99.0° (Epoch: 18 April)

Event Time Altitude Azimuth Distance (km) Brightness Sun altitude
Rises 16:21:00 0° 159° (SSE) 3,299 7.1 -6.5°
Reaches altitude 10° 16:23:20 10° 158° (SSE) 2,373 6.4 -6.9°
Maximum altitude 16:28:33 73° 75° (ENE) 843 4.1 -8.0°
Drops below altitude 10° 16:33:49 10° 351° (N) 2,391 6.7 -9.0°
Sets 16:36:10 0° 349° (N) 3,327 7.4 -9.5°
